FW6259 Weather Reports


time (UTC)temp
F
wind
direction
speed
knots
gust
knots
rain 1hr
in
rain 24hr
in
rain mn
in
humidity
%
barometer
mb
20260505211554 47 241 5.2 14.8 0.00 0.27 0.04 61 1007.6
20260505210059 47 188 5.2 12.2 0.00 0.27 0.04 60 1007.4
20260505204602 47 232 3.5 13.0 0.00 0.28 0.04 60 1007.6
20260505203056 48 254 7.8 15.6 0.00 0.28 0.04 58 1007.3
20260505201503 48 243 7.0 16.5 0.00 0.28 0.04 57 1007.1
20260505200055 48 199 6.1 14.8 0.00 0.28 0.04 57 1006.9
20260505194605 49 258 7.8 15.6 0.00 0.28 0.04 57 1006.9
20260505193107 49 190 6.1 15.6 0.00 0.28 0.04 56 1006.8
20260505191608 50 201 6.1 16.5 0.00 0.28 0.04 56 1006.6
20260505190051 50 240 8.7 17.4 0.00 0.28 0.04 54 1006.7
20260505184547 49 236 8.7 20.9 0.00 0.28 0.04 57 1006.6
20260505183100 49 196 8.7 15.6 0.00 0.28 0.04 59 1006.2
20260505181555 49 182 6.1 13.9 0.00 0.28 0.04 65 1006.2
20260505180054 47 177 8.7 16.5 0.00 0.28 0.04 66 1006.2
20260505174501 46 213 5.2 16.5 0.00 0.28 0.04 72 1006.6
20260505173108 45 195 3.5 13.9 0.00 0.28 0.04 77 1006.6
20260505171628 44 237 5.2 11.3 0.00 0.28 0.04 78 1006.7
20260505170054 44 230 1.7 7.8 0.00 0.28 0.04 83 1006.6
20260505164548 43 159 2.6 9.6 0.00 0.28 0.04 85 1006.6
20260505163002 44 134 6.1 10.4 0.00 0.28 0.04 85 1006.5
20260505161527 43 166 5.2 12.2 0.00 0.28 0.04 85 1006.5
20260505153052 40 184 1.7 5.2 0.01 0.28 0.04 93 1006.5
20260505151545 40 235 0.9 7.0 0.01 0.28 0.04 93 1006.1
20260505150127 39 212 1.7 4.3 0.00 0.27 0.03 96 1006.3
20260505124607 39 6 0.0 1.7 0.02 0.26 0.02 97 1006.4
20260505123059 39 109 0.0 2.6 0.00 0.24 0.00 97 1006.4
20260505121620 40 244 0.0 1.7 0.00 0.24 0.00 96 1006.4
20260505120040 39 101 0.0 0.9 0.00 0.24 0.00 98 1006.3
20260505114557 39 245 0.9 2.6 0.00 0.24 0.00 98 1006.6
20260505113056 38 41 0.0 3.5 0.00 0.24 0.00 98 1006.5
20260505111550 38 227 0.0 0.9 0.00 0.24 0.00 98 1006.6
20260505101503 39 136 0.0 1.7 0.00 0.24 0.00 97 1007.0
20260505100136 40 186 0.0 1.7 0.00 0.24 0.00 97 1007.0
20260505094550 40 229 0.0 2.6 0.00 0.24 0.00 96 1007.4
20260505093100 40 184 0.0 2.6 0.00 0.24 0.00 97 1007.7
20260505091618 40 144 0.0 1.7 0.00 0.24 0.00 97 1007.8
20260505090057 41 252 0.0 1.7 0.00 0.24 0.00 97 1008.0
20260505084547 41 124 0.0 0.9 0.01 0.25 0.00 97 1008.2
20260505083056 41 210 0.0 1.7 0.01 0.25 0.00 97 1008.0
20260505081552 41 202 0.0 2.6 0.01 0.25 0.00 97 1008.5
20260505080052 41 240 0.9 2.6 0.01 0.25 0.00 97 1008.6
20260505074559 41 263 0.9 1.7 0.00 0.26 0.24 97 1009.0
20260505073059 41 228 0.0 0.0 0.01 0.26 0.24 97 1009.0
20260505071606 42 224 0.0 0.9 0.01 0.26 0.24 97 1009.3
20260505070059 42 109 0.0 1.7 0.02 0.26 0.24 96 1009.5
20260505064559 42 193 0.9 4.3 0.02 0.30 0.24 96 1009.6
20260505063050 42 182 0.0 2.6 0.02 0.28 0.23 96 1009.9
20260505061557 42 245 0.0 3.5 0.03 0.28 0.23 96 1010.1
20260505060054 42 279 1.7 3.5 0.02 0.28 0.22 96 1010.4
20260505054648 43 224 0.9 1.7 0.02 0.35 0.22 96 1010.6
20260505053059 43 219 0.9 4.3 0.02 0.34 0.21 95 1010.7
20260505051556 43 242 0.0 0.9 0.01 0.33 0.20 96 1011.0
20260505041604 44 65 0.0 1.7 0.05 0.39 0.19 95 1011.8
20260505040049 44 338 0.0 0.9 0.06 0.39 0.19 96 1012.1
20260505034501 44 215 0.0 1.7 0.06 0.42 0.17 95 1012.6
20260505033055 45 257 0.0 0.9 0.05 0.40 0.15 95 1012.8
20260505031553 45 262 0.0 0.9 0.05 0.39 0.14 95 1012.8
20260505030107 45 274 0.0 0.9 0.06 0.38 0.13 95 1013.0
20260505024610 45 254 0.0 0.0 0.06 0.42 0.11 94 1013.2
20260505023049 46 237 0.9 1.7 0.06 0.41 0.10 93 1013.4
20260505021554 46 320 0.0 2.6 0.05 0.40 0.09 89 1013.4
20260505020103 47 221 0.0 1.7 0.03 0.38 0.07 89 1013.6
20260505014555 47 224 0.9 1.7 0.01 0.39 0.05 86 1013.8
20260505013046 48 147 0.9 1.7 0.00 0.38 0.04 83 1013.9
20260505011545 48 88 0.9 4.3 0.00 0.38 0.04 83 1014.0
20260505010112 49 169 0.9 4.3 0.00 0.38 0.04 81 1014.4
20260505004551 49 160 1.7 7.8 0.00 0.41 0.04 80 1014.8
20260505003003 48 253 3.5 9.6 0.01 0.41 0.04 79 1015.1
20260505001518 49 148 1.7 5.2 0.02 0.41 0.04 83 1015.4
20260505000011 48 79 0.9 4.3 0.02 0.41 0.04 87 1015.8
20260504234521 48 96 1.7 4.3 0.02 0.43 0.04 88 1016.2
20260504233036 48 81 0.9 2.6 0.01 0.42 0.03 88 1016.5
20260504231508 48 105 0.0 2.6 0.00 0.41 0.02 86 1016.7
20260504230005 48 120 1.7 0.0 0.00 0.00 0.02 86 1016.7
20260504224524 48 109 0.9 3.5 0.00 0.43 0.02 82 1016.8
20260504223008 48 82 0.0 2.6 0.00 0.43 0.02 87 1017.2
20260504221625 48 38 0.0 1.7 0.00 0.43 0.02 86 1017.4
20260504220059 47 6 0.0 1.7 0.00 0.43 0.02 89 1017.5
20260504214555 46 360 0.0 1.7 0.00 0.44 0.02 89 1017.7
20260504213044 46 6 0.0 1.7 0.00 0.44 0.02 90 1018.2